TimePST,TemperatureF,Dew PointF,Humidity,Sea Level PressureIn,VisibilityMPH,Wind Direction,Wind SpeedMPH,Gust SpeedMPH,PrecipitationIn,Events,Conditions,WindDirDegrees,DateUTC
12:58 AM,51.8,27.9,40,30.04,10.0,North,17.3,25.3,N/A,,Clear,350,2013-11-05 08:58:00
1:03 AM,51.8,28.4,41,30.07,10.0,NNW,15.0,25.3,N/A,,Clear,330,2013-11-05 09:03:00
1:58 AM,50.9,26.6,39,30.06,10.0,NNE,8.1,19.6,N/A,,Clear,20,2013-11-05 09:58:00
2:58 AM,51.3,20.7,30,30.08,10.0,North,6.9,-,N/A,,Clear,10,2013-11-05 10:58:00
3:58 AM,50.4,18.9,29,30.10,10.0,Variable,6.9,-,N/A,,Clear,0,2013-11-05 11:58:00
4:58 AM,50.0,17.4,28,30.14,10.0,NNW,12.7,-,N/A,,Clear,330,2013-11-05 12:58:00
5:58 AM,48.4,17.2,29,30.16,10.0,North,6.9,-,N/A,,Clear,360,2013-11-05 13:58:00
6:58 AM,48.9,16.7,28,30.19,10.0,NW,8.1,-,N/A,,Clear,320,2013-11-05 14:58:00
7:58 AM,53.4,16.7,24,30.21,10.0,North,13.8,19.6,N/A,,Clear,10,2013-11-05 15:58:00
8:58 AM,55.6,16.0,21,30.24,10.0,NNE,15.0,-,N/A,,Clear,20,2013-11-05 16:58:00
9:58 AM,56.7,13.8,18,30.25,10.0,NNE,17.3,23.0,N/A,,Clear,20,2013-11-05 17:58:00
10:58 AM,58.1,13.6,17,30.24,10.0,NNE,18.4,26.5,N/A,,Clear,30,2013-11-05 18:58:00
11:01 AM,57.2,14.0,18,30.25,10.0,North,20.7,26.5,N/A,,Clear,350,2013-11-05 19:01:00
11:58 AM,59.2,13.6,17,30.21,10.0,NNE,18.4,24.2,N/A,,Clear,20,2013-11-05 19:58:00
12:58 PM,60.1,14.0,16,30.18,10.0,NE,17.3,-,N/A,,Clear,40,2013-11-05 20:58:00
1:58 PM,60.8,12.7,15,30.18,10.0,NNE,17.3,24.2,N/A,,Clear,30,2013-11-05 21:58:00
2:58 PM,60.8,13.1,15,30.18,10.0,NE,9.2,-,N/A,,Clear,40,2013-11-05 22:58:00
3:58 PM,61.0,11.7,14,30.19,10.0,NE,9.2,-,N/A,,Clear,40,2013-11-05 23:58:00
4:58 PM,59.0,10.0,14,30.21,10.0,NNE,11.5,-,N/A,,Clear,30,2013-11-06 00:58:00
5:58 PM,53.1,11.3,19,30.23,10.0,East,6.9,-,N/A,,Clear,80,2013-11-06 01:58:00
6:58 PM,50.2,10.8,21,30.25,10.0,NE,6.9,-,N/A,,Clear,40,2013-11-06 02:58:00
7:58 PM,47.3,10.4,23,30.27,10.0,NNE,10.4,-,N/A,,Clear,30,2013-11-06 03:58:00
8:58 PM,45.5,11.8,26,30.27,10.0,ENE,8.1,-,N/A,,Clear,70,2013-11-06 04:58:00
9:58 PM,45.1,14.0,29,30.29,10.0,ENE,5.8,-,N/A,,Clear,60,2013-11-06 05:58:00
10:58 PM,46.6,16.0,29,30.30,10.0,East,4.6,-,N/A,,Clear,80,2013-11-06 06:58:00
11:58 PM,45.9,14.7,29,30.31,10.0,West,5.8,-,N/A,,Clear,280,2013-11-06 07:58:00